Location: Cortada Guamacho
(10.5667°N, 67.0833°W)
Time: 14:52:21
(UTC+00:00)

Envisat - Visible Passes

Search period start: 01 December 2022 00:00
Search period end: 11 December 2022 00:00
Orbit: 763 x 765 km, 98.2° (Epoch: 30 November)

Date Brightness Start Highest point End Pass type
(mag) Time Alt. Az. Time Alt. Az. Time Alt. Az.
01 Dec 5.6 07:34:31 15° SE 07:34:31 15° SE 07:36:08 10° SE visible
01 Dec 4.8 09:14:42 15° SW 09:14:42 15° SW 09:15:42 10° SW visible
02 Dec 4.3 08:37:21 28° SSW 08:37:21 28° SSW 08:39:42 10° SSW visible
03 Dec 4.9 08:00:02 24° SSE 08:00:02 24° SSE 08:02:22 10° SSE visible
04 Dec 6.0 07:22:41 11° ESE 07:22:41 11° ESE 07:23:02 10° SE visible
04 Dec 4.7 09:02:53 17° SW 09:02:53 17° SW 09:04:14 10° SW visible
05 Dec 4.5 08:25:33 27° S 08:25:33 27° S 08:27:46 10° S visible
06 Dec 5.3 07:48:12 19° SE 07:48:12 19° SE 07:50:00 10° SSE visible
07 Dec 4.7 08:51:04 20° SW 08:51:04 20° SW 08:52:35 10° SSW visible
08 Dec 4.8 08:13:43 24° S 08:13:43 24° S 08:15:44 10° S visible
09 Dec 5.7 07:36:23 14° SE 07:36:23 14° SE 07:37:25 10° SE visible
09 Dec 5.1 09:16:34 11° SW 09:16:34 11° SW 09:16:43 10° SW visible
10 Dec 4.7 08:39:14 20° SSW 08:39:14 20° SSW 08:40:49 10° SSW visible
